Location: Brachbach
(49.1847°N, 9.7240°E)
Time: 05:48:18
(UTC+00:00)

Cosmos 1025 Rocket - Pass Details

Date: 09 August 2024
Orbit: 590 x 612 km, 82.5° (Epoch: 07 September)

Event Time Altitude Azimuth Distance (km) Brightness Sun altitude
Rises 02:16:24 0° 6° (N) 2,887 7.4 -15.0°
Reaches altitude 10° 02:19:57 10° 36° (NE) 1,980 7.0 -14.6°
Maximum altitude 02:21:50 12° 62° (ENE) 1,817 6.6 -14.4°
Drops below altitude 10° 02:23:43 10° 87° (E) 1,976 6.3 -14.2°
Sets 02:27:13 0° 117° (ESE) 2,875 6.7 -13.8°
